• In Hungary
  • List of Countries
  • For 7 days
  • Water Temperature
  • Satellite Maps
  • Weather Map
  • News
  • Weather Widgets
  • user-avatar
    Login

    Hourly Weather Maszty

    Today, 23 September, Sunday

    Time Temperature Precipitation Wind Pressure Humidity
    00:00 +8°C° 0 mm 4 mps 748 mmHg 77%
    01:00 +8°C° 0 mm 4 mps 748 mmHg 77%
    02:00 +8°C° 0 mm 4 mps 748 mmHg 78%
    03:00 +7°C° 0 mm 4 mps 747 mmHg 79%
    04:00 +7°C° 0 mm 4 mps 747 mmHg 79%
    05:00 +8°C° 0 mm 4 mps 747 mmHg 77%
    06:00 +8°C° 0 mm 5 mps 747 mmHg 75%
    07:00 +9°C° 0 mm 5 mps 747 mmHg 73%
    08:00 +10°C° 0.1 mm 5 mps 747 mmHg 70%
    09:00 +12°C° 0.1 mm 5 mps 747 mmHg 66%
    10:00 +13°C° 0.1 mm 6 mps 747 mmHg 63%
    11:00 +14°C° 0.1 mm 5 mps 747 mmHg 60%
    12:00 +14°C° 0.1 mm 5 mps 747 mmHg 58%
    13:00 +15°C° 0.1 mm 5 mps 747 mmHg 55%
    14:00 +15°C° 0 mm 5 mps 746 mmHg 57%
    15:00 +14°C° 0 mm 4 mps 746 mmHg 58%
    16:00 +14°C° 0 mm 4 mps 746 mmHg 60%
    17:00 +13°C° 0 mm 3 mps 745 mmHg 67%
    18:00 +12°C° 0 mm 3 mps 745 mmHg 73%
    19:00 +10°C° 0 mm 2 mps 744 mmHg 80%
    20:00 +10°C° 0.8 mm 2 mps 743 mmHg 85%
    21:00 +10°C° 0.8 mm 2 mps 743 mmHg 89%
    22:00 +11°C° 0.8 mm 1 mps 743 mmHg 93%
    23:00 +9°C° 0.9 mm 2 mps 742 mmHg 93%

    Tomorrow, 24 September, Monday

    Time Temperature Precipitation Wind Pressure Humidity
    00:00 +9°C° 0.9 mm 2 mps 741 mmHg 94%
    01:00 +9°C° 0.9 mm 2 mps 740 mmHg 94%
    02:00 +9°C° 0.8 mm 3 mps 740 mmHg 93%
    03:00 +9°C° 0.8 mm 3 mps 740 mmHg 92%
    04:00 +8°C° 0.8 mm 4 mps 740 mmHg 90%
    05:00 +8°C° 0.3 mm 4 mps 741 mmHg 89%
    06:00 +8°C° 0.3 mm 4 mps 741 mmHg 88%
    07:00 +8°C° 0.3 mm 5 mps 742 mmHg 87%
    08:00 +9°C° 0.2 mm 6 mps 743 mmHg 81%
    09:00 +10°C° 0.2 mm 7 mps 743 mmHg 75%
    10:00 +11°C° 0.2 mm 8 mps 743 mmHg 68%
    11:00 +12°C° 0.1 mm 8 mps 744 mmHg 64%
    12:00 +12°C° 0.1 mm 8 mps 744 mmHg 59%
    13:00 +13°C° 0.1 mm 8 mps 744 mmHg 54%
    14:00 +12°C° 0.2 mm 7 mps 745 mmHg 58%
    15:00 +11°C° 0.2 mm 7 mps 745 mmHg 62%
    16:00 +10°C° 0.2 mm 6 mps 745 mmHg 65%
    17:00 +9°C° 0.6 mm 6 mps 746 mmHg 72%
    18:00 +8°C° 0.6 mm 6 mps 747 mmHg 78%
    19:00 +7°C° 0.6 mm 6 mps 748 mmHg 84%
    20:00 +7°C° 0.1 mm 6 mps 749 mmHg 83%
    21:00 +5°C° 0.1 mm 6 mps 750 mmHg 82%
    22:00 +5°C° 0.1 mm 5 mps 751 mmHg 82%
    23:00 +5°C° 0 mm 5 mps 751 mmHg 82%

    Day after tomorrow, 25 September, Tuesday

    Time Temperature Precipitation Wind Pressure Humidity
    00:00 +4°C° 0 mm 4 mps 752 mmHg 83%
    01:00 +4°C° 0 mm 4 mps 753 mmHg 84%
    02:00 +4°C° 0 mm 4 mps 753 mmHg 84%
    03:00 +4°C° 0 mm 4 mps 754 mmHg 84%
    04:00 +3°C° 0 mm 4 mps 754 mmHg 85%
    05:00 +3°C° 0 mm 5 mps 754 mmHg 82%
    06:00 +5°C° 0 mm 5 mps 755 mmHg 79%
    07:00 +5°C° 0 mm 5 mps 756 mmHg 76%
    08:00 +7°C° 0.1 mm 6 mps 756 mmHg 70%
    09:00 +8°C° 0.1 mm 7 mps 757 mmHg 65%
    10:00 +9°C° 0.1 mm 7 mps 757 mmHg 59%
    11:00 +9°C° 0.2 mm 7 mps 757 mmHg 58%
    12:00 +9°C° 0.2 mm 7 mps 758 mmHg 57%
    13:00 +10°C° 0.2 mm 8 mps 758 mmHg 55%
    14:00 +9°C° 0.1 mm 7 mps 758 mmHg 56%
    15:00 +9°C° 0.1 mm 7 mps 759 mmHg 57%
    16:00 +9°C° 0.1 mm 6 mps 759 mmHg 59%
    17:00 +8°C° 0 mm 6 mps 760 mmHg 64%
    18:00 +6°C° 0 mm 5 mps 760 mmHg 68%
    19:00 +5°C° 0 mm 4 mps 761 mmHg 73%
    20:00 +5°C° 0 mm 3 mps 761 mmHg 75%
    21:00 +4°C° 0 mm 3 mps 762 mmHg 77%
    22:00 +4°C° 0 mm 3 mps 762 mmHg 79%
    23:00 +3°C° 0 mm 3 mps 762 mmHg 78%

    26 September, Wednesday

    Time Temperature Precipitation Wind Pressure Humidity
    00:00 +3°C° 0 mm 3 mps 762 mmHg 76%
    01:00 +3°C° 0 mm 3 mps 762 mmHg 75%
    02:00 +3°C° 0 mm 3 mps 762 mmHg 74%
    03:00 +3°C° 0 mm 3 mps 762 mmHg 73%
    04:00 +3°C° 0 mm 3 mps 762 mmHg 72%
    05:00 +4°C° 0 mm 4 mps 762 mmHg 72%
    06:00 +4°C° 0 mm 4 mps 762 mmHg 72%
    07:00 +5°C° 0 mm 5 mps 762 mmHg 72%
    08:00 +7°C° 0 mm 5 mps 762 mmHg 68%
    09:00 +9°C° 0 mm 5 mps 761 mmHg 63%
    10:00 +10°C° 0 mm 6 mps 761 mmHg 59%
    11:00 +11°C° 0 mm 6 mps 761 mmHg 55%
    12:00 +12°C° 0 mm 7 mps 760 mmHg 51%
    13:00 +12°C° 0 mm 7 mps 760 mmHg 48%
    14:00 +11°C° 0 mm 7 mps 759 mmHg 51%
    15:00 +10°C° 0 mm 7 mps 758 mmHg 54%
    16:00 +10°C° 0 mm 6 mps 758 mmHg 57%
    17:00 +9°C° 0 mm 6 mps 757 mmHg 59%
    18:00 +9°C° 0 mm 7 mps 757 mmHg 61%
    19:00 +8°C° 0 mm 7 mps 757 mmHg 63%
    20:00 +8°C° 0.2 mm 7 mps 756 mmHg 67%
    21:00 +8°C° 0.2 mm 7 mps 756 mmHg 70%
    22:00 +8°C° 0.2 mm 7 mps 755 mmHg 73%
    23:00 +8°C° 0.3 mm 7 mps 755 mmHg 74%

    27 September, Thursday

    Time Temperature Precipitation Wind Pressure Humidity
    00:00 +8°C° 0.3 mm 7 mps 754 mmHg 75%
    01:00 +8°C° 0.3 mm 7 mps 753 mmHg 77%
    02:00 +8°C° 0.1 mm 7 mps 753 mmHg 76%
    03:00 +9°C° 0.1 mm 6 mps 752 mmHg 75%
    04:00 +9°C° 0.1 mm 6 mps 752 mmHg 75%
    05:00 +9°C° 0.1 mm 6 mps 752 mmHg 77%
    06:00 +9°C° 0.1 mm 6 mps 752 mmHg 80%
    07:00 +9°C° 0.1 mm 6 mps 752 mmHg 83%
    08:00 +10°C° 0.1 mm 6 mps 752 mmHg 83%
    09:00 +11°C° 0.1 mm 6 mps 752 mmHg 84%
    10:00 +11°C° 0.1 mm 6 mps 752 mmHg 84%
    11:00 +13°C° 0.1 mm 6 mps 752 mmHg 83%
    12:00 +14°C° 0.1 mm 6 mps 752 mmHg 83%
    13:00 +14°C° 0.1 mm 6 mps 752 mmHg 82%
    14:00 +14°C° 0.1 mm 6 mps 752 mmHg 83%
    15:00 +14°C° 0.1 mm 6 mps 752 mmHg 85%
    16:00 +14°C° 0.1 mm 6 mps 752 mmHg 86%
    17:00 +14°C° 0.2 mm 5 mps 752 mmHg 88%
    18:00 +14°C° 0.2 mm 5 mps 752 mmHg 89%
    19:00 +14°C° 0.2 mm 5 mps 752 mmHg 90%
    20:00 +13°C° 0.1 mm 5 mps 752 mmHg 91%
    21:00 +13°C° 0.1 mm 5 mps 752 mmHg 92%
    22:00 +13°C° 0.1 mm 5 mps 752 mmHg 93%
    23:00 +13°C° 0 mm 5 mps 751 mmHg 93%

    28 September, Friday

    Time Temperature Precipitation Wind Pressure Humidity
    00:00 +12°C° 0 mm 5 mps 751 mmHg 93%
    01:00 +11°C° 0 mm 6 mps 751 mmHg 93%
    02:00 +13°C° 0 mm 6 mps 750 mmHg 92%
    03:00 +13°C° 0 mm 6 mps 750 mmHg 92%
    04:00 +13°C° 0 mm 6 mps 750 mmHg 91%
    05:00 +13°C° 0 mm 6 mps 750 mmHg 90%
    06:00 +14°C° 0 mm 6 mps 750 mmHg 89%
    07:00 +14°C° 0 mm 6 mps 750 mmHg 88%
    08:00 +14°C° 0.1 mm 6 mps 750 mmHg 86%
    09:00 +15°C° 0.1 mm 5 mps 750 mmHg 84%
    10:00 +16°C° 0.1 mm 5 mps 750 mmHg 81%
    11:00 +17°C° 0.2 mm 4 mps 750 mmHg 81%
    12:00 +17°C° 0.2 mm 4 mps 750 mmHg 81%
    13:00 +17°C° 0.2 mm 3 mps 750 mmHg 80%
    14:00 +16°C° 0.3 mm 3 mps 750 mmHg 84%
    15:00 +15°C° 0.3 mm 2 mps 750 mmHg 87%
    16:00 +15°C° 0.3 mm 2 mps 750 mmHg 90%
    17:00 +14°C° 0.6 mm 2 mps 750 mmHg 91%
    18:00 +14°C° 0.6 mm 2 mps 750 mmHg 93%
    19:00 +13°C° 0.6 mm 2 mps 750 mmHg 94%
    20:00 +13°C° 0.8 mm 2 mps 750 mmHg 94%
    21:00 +13°C° 0.8 mm 2 mps 750 mmHg 94%
    22:00 +12°C° 0.8 mm 2 mps 750 mmHg 94%
    23:00 +12°C° 0.5 mm 2 mps 750 mmHg 95%
    Show more